Wind_Speed
59 59 59 60 63 68 69 70 71 73 76 78 78 79 79 79 78 79 81 80 80 81 82 83 85 85 84 83 81 80 79 79 79 78 78 78 79 79 79 78 80 80 81
54 55 55 55 57 58 62 65 65 67 71 74 73 75 75 73 73 73 73 72 71 74 74 77 81 83 85 85 84 82 81 79 76 77 76 77 76 76 76 75 77 76 77
47 49 51 50 51 52 54 57 60 61 63 64 67 65 65 64 64 64 63 66 68 70 72 74 76 76 77 78 79 82 82 78 75 73 74 71 71 71 69 70 67 74 73
45 45 44 44 47 49 50 52 53 54 53 53 51 49 45 40 40 40 39 38 41 45 52 58 61 66 70 72 73 71 72 73 73 67 62 61 55 54 55 59 53 55 63
49 48 46 45 46 47 49 49 50 49 49 46 39 26 18 17 18 25 29 31 36 36 38 43 47 53 57 61 60 64 65 62 60 51 44 47 48 44 46 46 51 53 55
52 51 50 48 49 47 48 50 47 45 43 42 34 29 24 38 43 29 34 43 42 38 38 41 41 42 46 46 46 49 49 46 44 42 36 35 34 40 48 51 54 55 47
49 50 47 48 49 50 49 47 46 45 42 38 39 36 31 32 41 36 34 39 42 34 34 28 24 24 28 32 34 36 34 31 29 28 34 34 39 41 44 46 48 42 41
45 46 44 45 47 47 48 44 45 45 40 39 44 49 45 37 43 39 40 36 38 28 24 19 20 13 16 25 28 24 20 31 29 39 42 41 38 40 42 43 41 40 44
45 44 43 43 45 44 42 41 42 41 39 40 52 58 48 52 50 44 41 44 36 33 31 27 25 18 14 16 26 30 30 37 41 36 41 44 45 42 42 44 42 40 36
45 42 43 44 42 41 42 40 36 36 37 40 51 60 56 51 47 50 48 49 44 35 30 30 26 22 21 22 17 26 34 34 35 39 41 43 43 38 37 33 30 23 17
47 40 39 41 39 41 41 38 31 30 33 39 59 61 53 51 50 52 49 48 31 31 28 27 22 26 27 23 27 29 38 39 40 39 37 38 29 25 25 23 18 13 14
44 36 37 38 39 39 40 34 25 24 32 39 65 67 57 54 51 49 47 45 37 27 34 31 31 27 26 28 29 37 43 46 44 40 35 26 19 26 24 19 9 12 14
41 36 36 38 38 37 38 33 21 23 30 41 66 67 65 60 56 50 51 42 33 30 34 31 28 31 32 31 30 39 43 45 44 32 26 23 18 18 16 17 17 16 21
41 40 37 38 38 35 33 32 22 23 27 39 59 70 67 61 59 56 51 47 43 35 29 28 20 24 22 26 27 32 31 35 35 34 25 25 18 14 17 21 21 18 24
40 38 36 39 38 35 32 33 26 26 31 43 55 66 66 61 52 49 48 48 41 34 18 29 28 22 24 18 24 27 31 32 30 31 27 29 25 20 21 20 23 33 36
38 39 36 40 38 37 32 31 30 24 37 48 54 50 60 56 47 51 53 49 44 38 25 30 21 23 26 21 25 25 26 31 34 33 30 26 28 24 25 28 31 33 39
41 38 36 37 37 36 33 30 31 25 41 49 56 51 46 49 53 53 55 44 40 40 34 27 25 25 27 23 15 17 23 25 28 36 36 35 32 34 36 39 42 40 41
37 37 37 35 35 37 33 30 34 30 39 46 57 54 56 51 53 59 61 48 46 41 41 37 25 27 26 25 20 21 26 25 25 28 33 36 37 39 42 41 42 42 43
41 38 36 34 34 38 34 29 37 34 42 45 50 63 57 57 57 57 57 48 40 43 37 32 29 34 28 26 26 28 29 31 33 34 38 37 44 41 48 50 47 48 48
41 37 34 32 31 34 34 30 39 37 40 44 47 51 64 62 61 61 53 50 52 42 40 36 36 38 40 35 31 32 39 41 43 43 44 43 44 46 50 50 50 51 53
38 34 30 30 33 28 28 32 38 41 41 47 43 44 56 63 64 61 55 57 54 54 48 37 39 40 43 41 42 41 42 43 44 44 43 45 46 49 53 54 56 56 60
30 29 27 27 34 34 24 28 35 44 45 44 51 49 51 61 63 64 58 54 54 58 52 46 43 42 48 47 48 50 47 46 43 45 48 50 51 51 54 55 59 62 64
29 27 24 27 31 36 32 28 36 47 46 44 45 50 53 52 62 62 60 57 56 56 51 51 49 49 45 50 46 53 52 52 48 50 54 53 53 48 54 58 60 63 65
26 24 24 26 31 36 31 26 30 43 51 47 45 43 48 54 54 59 60 64 59 56 57 59 54 54 46 46 48 54 56 52 54 56 55 54 56 56 57 59 64 65 66
26 23 23 26 30 36 31 21 21 40 46 49 41 41 41 46 55 56 61 63 63 61 60 54 57 61 53 53 47 49 55 56 53 53 54 54 56 58 59 62 64 67 68
25 22 22 25 29 35 28 23 22 29 42 43 47 43 42 46 46 50 62 65 63 71 67 66 55 55 53 54 52 51 54 56 55 57 60 58 61 61 65 65 67 68 69
Wind_Direction
271 269 267 265 265 266 263 262 262 262 262 260 259 259 258 257 257 257 257 257 256 255 256 256 255 256 257 258 257 257 257 259 261 262 263 266 266 267 268 270 272 273 274
274 272 269 267 266 264 265 262 261 261 262 262 263 264 265 265 264 265 264 263 263 261 261 261 259 258 258 257 259 260 260 261 262 263 263 264 266 268 269 271 272 272 274
275 274 273 273 270 265 263 264 264 263 262 263 262 264 265 267 265 266 267 265 262 261 259 260 260 260 259 257 257 258 261 265 267 267 268 267 267 269 269 271 273 274 275
280 278 278 278 275 274 271 268 265 263 262 260 262 267 268 269 265 268 266 267 265 263 259 257 258 259 259 258 258 259 261 263 265 268 268 273 274 271 273 274 277 275 278
290 287 285 281 278 277 276 274 270 268 266 262 256 245 222 233 267 269 265 267 268 264 266 264 261 257 256 258 259 259 260 261 264 266 268 268 273 279 275 266 276 273 277
290 289 288 284 284 282 282 279 278 271 265 258 246 210 216 267 267 264 265 267 269 262 267 266 263 261 258 258 257 257 259 260 263 257 264 274 274 270 268 270 271 276 285
294 293 289 285 284 282 280 281 278 272 263 248 236 206 220 246 256 252 261 266 268 263 261 254 261 263 261 255 258 252 253 247 250 263 274 266 269 265 269 270 273 281 279
299 296 290 284 284 285 283 284 275 268 255 232 225 204 195 190 224 236 249 248 257 249 249 247 252 261 264 252 245 239 224 254 250 251 258 264 273 266 271 279 276 274 272
304 297 291 287 287 287 285 282 278 270 252 231 218 203 196 198 223 225 241 243 240 246 257 265 258 257 261 262 245 234 230 233 235 246 251 266 277 272 274 272 270 270 271
305 297 290 289 290 292 287 289 278 261 244 228 207 194 195 202 213 223 232 239 243 255 258 263 256 255 255 262 249 225 248 249 248 245 264 270 268 267 267 267 260 267 266
303 298 289 289 292 294 292 289 282 253 234 215 190 186 185 193 197 217 223 233 245 255 253 246 255 268 259 260 239 233 235 233 237 251 267 260 257 260 259 262 264 248 236
304 299 292 288 291 293 292 287 283 255 226 212 189 190 187 195 204 215 224 230 243 253 254 255 248 249 256 253 233 231 231 235 239 257 256 249 257 254 258 252 237 245 246
298 292 292 292 291 290 291 285 280 247 227 210 191 193 200 202 210 212 222 227 241 247 257 254 253 252 260 252 230 232 241 243 244 253 254 235 238 242 244 231 240 262 276
292 292 297 296 296 288 288 276 273 239 226 206 197 196 194 209 209 212 225 232 239 248 244 255 248 241 247 237 235 233 241 230 238 249 223 226 237 241 239 239 250 275 293
289 286 292 294 298 290 284 266 258 237 214 202 197 197 203 207 212 224 222 226 229 245 224 241 243 247 250 226 224 233 235 228 232 217 223 227 243 251 277 271 278 273 288
289 290 287 290 295 290 286 256 248 243 216 204 202 205 209 215 218 221 220 225 235 234 223 242 245 222 222 219 222 229 230 241 228 222 225 256 252 258 277 273 290 294 296
290 291 290 293 293 290 285 260 241 242 220 212 207 210 211 219 219 223 220 227 227 223 231 233 226 212 217 219 217 244 234 229 227 233 237 253 265 268 274 276 294 295 294
289 288 289 294 296 293 284 261 236 238 223 214 215 212 209 212 215 223 228 224 234 227 233 240 216 224 217 225 234 239 248 245 254 250 255 258 265 276 278 288 299 294 296
290 286 287 293 302 294 281 263 230 228 219 217 211 216 215 211 212 217 224 227 216 218 216 220 217 222 225 229 246 245 247 252 255 256 259 266 264 274 282 287 287 290 293
290 286 287 295 302 291 276 265 229 232 225 219 217 215 218 214 214 218 220 217 215 225 215 213 218 224 233 238 241 251 259 261 264 271 273 272 272 275 277 285 285 290 294
289 283 291 301 311 295 269 260 237 233 222 213 221 221 220 214 214 221 217 226 223 228 223 228 223 227 231 233 242 240 247 256 263 269 269 271 272 279 272 285 281 289 293
286 285 297 305 322 310 277 263 248 233 229 223 223 221 220 220 218 223 225 225 227 230 229 232 231 231 231 235 241 243 251 256 264 262 267 271 279 279 278 283 284 288 294
284 284 299 306 321 316 299 281 246 234 231 231 224 226 223 220 221 223 224 225 231 232 233 234 235 242 246 245 243 246 254 260 265 268 273 274 278 279 283 284 287 290 295
283 286 298 309 324 320 311 285 254 234 234 233 226 229 222 221 223 223 222 227 227 231 236 237 235 239 249 249 250 257 261 266 265 266 268 272 275 280 283 287 292 296 298
280 287 297 310 322 327 319 293 263 236 232 230 233 226 219 221 227 227 224 226 227 230 230 241 240 239 246 249 258 258 256 260 263 268 269 273 277 278 284 288 290 292 293
277 286 290 307 323 328 322 306 283 246 230 233 232 225 226 221 224 226 231 228 233 234 242 244 252 251 253 258 257 259 259 257 263 270 272 275 278 282 285 286 287 290 290
Height
10780 10778 10778 10777 10775 10772 10775 10775 10778 10779 10780 10781 10784 10787 10790 10792 10796 10798 10802 10807 10811 10813 10812 10814 10817 10819 10822 10823 10827 10829 10832 10834 10837 10840 10841 10842 10841 10841 10841 10842 10841 10840 10839
10767 10764 10765 10765 10764 10763 10760 10762 10762 10764 10766 10768 10772 10774 10777 10780 10783 10785 10789 10792 10797 10799 10799 10800 10803 10806 10809 10812 10815 10817 10818 10822 10827 10827 10830 10830 10831 10831 10831 10833 10831 10830 10830
10757 10755 10753 10753 10752 10752 10752 10750 10751 10752 10754 10757 10759 10762 10766 10770 10772 10775 10776 10778 10781 10783 10784 10784 10785 10790 10794 10797 10802 10803 10807 10811 10814 10815 10817 10819 10820 10820 10820 10821 10820 10822 10821
10748 10746 10746 10744 10741 10740 10740 10739 10740 10741 10744 10746 10751 10756 10760 10763 10765 10766 10767 10768 10769 10770 10771 10770 10773 10777 10780 10784 10790 10796 10796 10800 10803 10806 10805 10806 10809 10809 10809 10811 10810 10810 10811
10736 10735 10734 10733 10731 10731 10728 10728 10729 10731 10733 10738 10743 10746 10749 10753 10756 10758 10760 10761 10761 10760 10760 10761 10763 10765 10768 10774 10782 10784 10785 10789 10791 10796 10796 10798 10800 10800 10801 10801 10803 10803 10804
10725 10726 10724 10723 10720 10720 10719 10717 10718 10719 10722 10727 10733 10738 10735 10742 10748 10753 10752 10751 10750 10751 10751 10752 10754 10757 10761 10766 10770 10773 10776 10780 10785 10788 10790 10790 10792 10796 10795 10795 10796 10797 10797
10717 10715 10715 10712 10710 10709 10708 10707 10705 10706 10710 10716 10720 10722 10723 10731 10736 10743 10742 10741 10738 10742 10743 10744 10747 10750 10754 10759 10764 10766 10769 10775 10777 10782 10783 10786 10787 10788 10788 10788 10790 10790 10790
10712 10707 10705 10703 10699 10697 10696 10695 10690 10691 10695 10703 10705 10708 10711 10720 10726 10736 10732 10734 10732 10736 10738 10740 10743 10746 10749 10752 10755 10760 10764 10768 10772 10776 10779 10781 10780 10780 10780 10781 10781 10781 10780
10704 10699 10697 10694 10691 10688 10685 10682 10679 10678 10681 10689 10692 10699 10704 10711 10718 10724 10723 10726 10727 10731 10734 10736 10739 10743 10747 10750 10752 10755 10757 10760 10764 10768 10773 10774 10774 10774 10774 10773 10773 10773 10773
10697 10692 10688 10684 10681 10678 10674 10670 10669 10667 10668 10674 10683 10690 10694 10705 10712 10715 10716 10720 10721 10725 10729 10731 10735 10739 10743 10745 10748 10752 10754 10755 10761 10764 10768 10768 10767 10767 10766 10766 10766 10767 10769
10689 10684 10681 10676 10673 10668 10664 10661 10659 10656 10659 10665 10675 10680 10688 10696 10702 10703 10707 10713 10716 10721 10724 10728 10732 10735 10738 10740 10743 10746 10748 10750 10755 10759 10760 10760 10760 10761 10761 10760 10762 10763 10763
10677 10676 10673 10671 10667 10663 10657 10653 10652 10651 10651 10658 10666 10675 10681 10687 10693 10699 10702 10706 10713 10716 10717 10724 10728 10732 10734 10735 10737 10740 10739 10745 10749 10753 10753 10755 10756 10756 10757 10757 10758 10760 10761
10669 10669 10666 10664 10660 10657 10650 10647 10647 10646 10646 10651 10662 10670 10675 10680 10686 10693 10697 10703 10709 10712 10714 10719 10723 10727 10728 10730 10732 10733 10735 10740 10743 10746 10748 10751 10752 10752 10753 10754 10755 10756 10756
10661 10659 10657 10654 10652 10649 10645 10642 10642 10643 10643 10647 10656 10663 10667 10675 10683 10688 10694 10701 10704 10709 10708 10714 10716 10718 10721 10723 10727 10726 10730 10734 10738 10739 10744 10747 10747 10748 10749 10750 10750 10751 10752
10657 10655 10652 10647 10643 10640 10639 10636 10637 10638 10641 10644 10650 10658 10664 10668 10676 10683 10689 10695 10699 10706 10703 10707 10714 10717 10719 10720 10724 10719 10726 10728 10732 10735 10738 10741 10741 10743 10744 10746 10747 10746 10745
10649 10648 10645 10641 10636 10632 10631 10629 10630 10634 10636 10640 10646 10652 10660 10666 10671 10677 10683 10689 10697 10702 10700 10704 10707 10709 10714 10717 10718 10717 10723 10724 10727 10731 10733 10736 10737 10737 10738 10739 10739 10739 10736
10642 10639 10637 10633 10628 10624 10622 10620 10622 10627 10631 10634 10640 10645 10652 10659 10666 10670 10678 10685 10693 10695 10697 10701 10703 10705 10709 10713 10714 10714 10718 10720 10724 10726 10728 10729 10730 10731 10731 10731 10731 10730 10727
10634 10633 10630 10625 10621 10615 10614 10612 10615 10620 10624 10627 10632 10637 10645 10651 10658 10665 10672 10681 10687 10690 10693 10695 10698 10701 10703 10708 10710 10712 10713 10717 10719 10721 10721 10722 10722 10724 10723 10722 10722 10721 10718
10628 10627 10622 10619 10614 10607 10605 10604 10607 10613 10617 10621 10626 10633 10637 10644 10649 10655 10664 10674 10683 10684 10686 10688 10693 10697 10699 10702 10704 10707 10706 10710 10712 10713 10715 10716 10717 10716 10715 10714 10715 10713 10709
10621 10619 10616 10612 10607 10601 10596 10596 10600 10604 10610 10615 10620 10624 10632 10638 10643 10649 10657 10668 10675 10676 10680 10682 10686 10690 10693 10694 10697 10700 10702 10702 10705 10707 10708 10708 10710 10709 10707 10706 10705 10702 10698
10614 10612 10610 10605 10599 10594 10590 10589 10592 10597 10602 10608 10611 10615 10622 10631 10637 10643 10651 10660 10666 10669 10673 10677 10680 10682 10685 10686 10688 10691 10694 10697 10697 10699 10701 10701 10702 10701 10698 10697 10693 10690 10687
10608 10606 10603 10599 10592 10585 10584 10582 10584 10589 10594 10599 10605 10609 10616 10623 10629 10636 10644 10649 10656 10660 10667 10671 10673 10675 10677 10678 10682 10684 10686 10688 10690 10691 10692 10693 10693 10691 10689 10686 10682 10678 10674
10602 10600 10597 10594 10587 10580 10575 10574 10575 10579 10586 10592 10597 10601 10609 10615 10622 10629 10636 10642 10647 10654 10659 10663 10666 10669 10672 10673 10674 10676 10678 10681 10682 10683 10682 10681 10680 10679 10676 10674 10673 10668 10664
10595 10594 10592 10588 10582 10574 10568 10565 10564 10569 10576 10583 10590 10596 10600 10608 10615 10621 10629 10635 10640 10646 10651 10654 10657 10661 10664 10665 10668 10668 10669 10672 10673 10673 10673 10673 10671 10670 10668 10662 10655 10652 10650
10589 10587 10586 10582 10578 10570 10563 10557 10557 10561 10567 10575 10582 10589 10594 10600 10607 10613 10621 10627 10632 10638 10642 10645 10648 10650 10653 10655 10658 10659 10660 10662 10663 10663 10662 10662 10660 10658 10655 10651 10647 10643 10638
10583 10581 10581 10578 10573 10567 10559 10555 10553 10554 10560 10569 10575 10582 10587 10593 10599 10606 10612 10617 10622 10627 10630 10634 10636 10639 10642 10645 10647 10647 10649 10651 10653 10652 10651 10650 10646 10644 10641 10638 10637 10631 10627